"2016-07-03 00:00:00",1775449,1.428,290.6,2.39,0.06,21.62,108.2616,20.43,21.4,40.82,0,111.1,13.06,21.25,252.6
"2016-07-03 00:00:30",1775450,1.342,280.8,2.635,0.05,21.57,108.2647,20.44,21.4,41,0,111.1,13.06,21.26,242.8
"2016-07-03 00:01:00",1775451,1.477,283.1,2.535,0.158,21.62,108.2659,20.44,21.4,41.14,0,111.1,13.06,21.27,245.1
"2016-07-03 00:01:30",1775452,1.764,281.7,0.918,0.077,21.65,108.2659,20.44,21.41,40.99,0,111.1,13.06,21.27,243.7
"2016-07-03 00:02:00",1775453,1.833,282.9,2.694,0.061,21.66,108.2659,20.44,21.42,40.31,0,111.1,13.06,21.27,244.9
"2016-07-03 00:02:30",1775454,1.777,260.3,12.74,0.115,21.65,108.2659,20.44,21.42,40.17,0,111.1,13.07,21.27,222.3
"2016-07-03 00:03:00",1775455,1.682,266.4,7.601,0.148,21.66,108.2659,20.44,21.42,40.16,0,111.1,13.07,21.27,228.4
"2016-07-03 00:03:30",1775456,1.402,265.4,4.225,0.128,21.78,108.2659,20.44,21.45,40.14,0,111.1,13.07,21.27,227.4
"2016-07-03 00:04:00",1775457,1.465,271.2,4.488,0.172,21.67,108.2659,20.44,21.45,40.26,0,111.1,13.07,21.27,233.2
"2016-07-03 00:04:30",1775458,1.368,274.2,4.842,0.106,21.66,108.2659,20.44,21.46,40.17,0,111.1,13.07,21.27,236.2
"2016-07-03 00:05:00",1775459,1.465,270.7,8.07,0.224,21.67,108.2659,20.44,21.45,40,0,111.1,13.07,21.27,232.7
"2016-07-03 00:05:30",1775460,1.492,259.5,6.447,0.192,21.68,108.2659,20.44,21.46,39.98,0,111.1,13.07,21.27,221.5
"2016-07-03 00:06:00",1775461,1.698,261.9,4.952,0.263,21.65,108.2659,20.44,21.45,40.39,0,111.1,13.07,21.27,223.9
"2016-07-03 00:06:30",1775462,2.146,268.9,4.367,0.197,21.67,108.2659,20.44,21.46,40.2,0,111.1,13.07,21.27,230.9
"2016-07-03 00:07:00",1775463,2.081,255.5,10.5,0.149,21.84,108.2659,20.44,21.46,40.66,0,111.1,13.07,21.27,217.5
"2016-07-03 00:07:30",1775464,2.128,251.3,1.486,0.057,21.82,108.2659,20.44,21.48,41.46,0,111.1,13.07,21.27,213.3
"2016-07-03 00:08:00",1775465,2.277,252.8,2.329,0.111,21.82,108.2659,20.44,21.47,42.6,0,111,13.07,21.27,214.8
"2016-07-03 00:08:30",1775466,2.132,252.9,2.838,0.076,21.85,108.2659,20.44,21.47,43,0,111.1,13.07,21.27,214.9
"2016-07-03 00:09:00",1775467,1.739,249.2,2.441,0.144,21.9,108.2667,20.44,21.5,42.6,0,111,13.07,21.27,211.2
"2016-07-03 00:09:30",1775468,1.92,252,1.278,0.144,21.86,108.267,20.44,21.48,41.89,0,111.1,13.07,21.27,214.0
"2016-07-03 00:10:00",1775469,1.902,251.5,1.052,0.105,21.8,108.272,20.46,21.49,42.87,0,111,13.07,21.28,213.5
"2016-07-03 00:10:30",1775470,1.79,253,2.398,0.128,21.75,108.2802,20.48,21.49,43.14,0,111,13.07,21.30,215.0
"2016-07-03 00:11:00",1775471,1.639,263.6,2.725,0.131,21.56,108.2861,20.49,21.51,42.61,0,111,13.07,21.32,225.6
"2016-07-03 00:11:30",1775472,1.507,265.8,4.407,0.192,21.52,108.2931,20.51,21.51,41.97,0,111,13.07,21.34,227.8
"2016-07-03 00:12:00",1775473,1.43,273.9,5.043,0.135,21.5,108.2968,20.52,21.5,41.46,0,111,13.07,21.34,235.9
"2016-07-03 00:12:30",1775474,1.57,263.8,7.088,0.223,21.45,108.2996,20.53,21.52,40.98,0,111.1,13.07,21.35,225.8
"2016-07-03 00:13:00",1775475,1.567,262,7.439,0.196,21.47,108.2996,20.53,21.51,40.73,0,111,13.07,21.35,224.0
"2016-07-03 00:13:30",1775476,1.913,271.1,3.512,0.158,21.28,108.2996,20.53,21.52,40.71,0,111,13.07,21.35,233.1
"2016-07-03 00:14:00",1775477,1.995,262.4,3.289,0.134,21.08,108.2996,20.53,21.53,40.65,0,111,13.06,21.35,224.4
"2016-07-03 00:14:30",1775478,1.748,261,6.529,0.141,21.01,108.2996,20.53,21.54,40.65,0,111,13.06,21.35,223.0
"2016-07-03 00:15:00",1775479,1.832,266.2,8.04,0.099,20.88,108.2996,20.53,21.54,40.68,0,111,13.06,21.35,228.2
"2016-07-03 00:15:30",1775480,1.989,263.3,3.289,0.366,20.84,108.3038,20.54,21.56,40.84,0,111,13.06,21.36,225.3
"2016-07-03 00:16:00",1775481,2.357,266.4,5.076,0.143,20.92,108.3257,20.6,21.56,41.04,0,111,13.06,21.42,228.4
"2016-07-03 00:16:30",1775482,2.478,272.2,3.605,0.135,21,108.3333,20.61,21.59,41.13,0,111,13.06,21.44,234.2
"2016-07-03 00:17:00",1775483,2.466,271.8,0.933,0.034,20.98,108.3321,20.61,21.59,40.8,0,111,13.06,21.44,233.8
"2016-07-03 00:17:30",1775484,2.407,273.3,0.562,0.062,20.97,108.3457,20.65,21.6,40.5,0,111,13.06,21.47,235.3
"2016-07-03 00:18:00",1775485,2.15,275.6,1.833,0.078,20.91,108.3588,20.68,21.62,40.99,0,111.1,13.06,21.50,237.6
"2016-07-03 00:18:30",1775486,2.081,280,1.842,0.027,21.06,108.3601,20.68,21.64,40.09,0,111,13.06,21.51,242.0
"2016-07-03 00:19:00",1775487,2.265,284.4,1.791,0.111,21.08,108.3658,20.7,21.66,39.35,0,111.1,13.06,21.52,246.4
"2016-07-03 00:19:30",1775488,2.552,282,2.254,0.182,21.15,108.389,20.76,21.68,38.8,0,111.1,13.06,21.58,244.0
"2016-07-03 00:20:00",1775489,2.647,293.6,7.241,0.316,21.17,108.3868,20.75,21.72,38.89,0,111.1,13.06,21.58,255.6
"2016-07-03 00:20:30",1775490,1.815,284.3,7.136,0.084,21.29,108.4003,20.79,21.74,40.75,0,111.1,13.06,21.61,246.3
"2016-07-03 00:21:00",1775491,1.893,283,1.694,0.062,21.32,108.4169,20.83,21.76,40.67,0,111.1,13.07,21.65,245.0
"2016-07-03 00:21:30",1775492,1.726,277.8,2.082,0.066,21.44,108.4123,20.82,21.79,40.02,0,111.1,13.06,21.64,239.8
"2016-07-03 00:22:00",1775493,1.959,275.9,1.498,0.091,21.45,108.4288,20.86,21.81,39.69,0,111.1,13.06,21.68,237.9
"2016-07-03 00:22:30",1775494,1.903,272.6,0.88,0.062,21.45,108.439,20.89,21.84,39.94,0,111.1,13.06,21.71,234.6
"2016-07-03 00:23:00",1775495,1.731,274.5,4.07,0.042,21.43,108.4387,20.89,21.87,41.34,0,111.1,13.06,21.71,236.5
"2016-07-03 00:23:30",1775496,1.718,287.9,0.846,0.084,21.3,108.4424,20.89,21.88,39.17,0,111.1,13.06,21.72,249.9
"2016-07-03 00:24:00",1775497,2.022,296.4,4.329,0.208,21.35,108.4576,20.93,21.89,39.08,0,111.1,13.06,21.76,258.4
"2016-07-03 00:24:30",1775498,1.977,292.3,3.599,0.104,21.35,108.4694,20.96,21.92,40.78,0,111.1,13.06,21.79,254.3
"2016-07-03 00:25:00",1775499,1.861,291.6,5.684,0.241,21.39,108.4676,20.96,21.95,41.37,0,111.1,13.06,21.78,253.6
"2016-07-03 00:25:30",1775500,1.754,284.7,5.446,0.134,21.39,108.4694,20.96,21.96,41.51,0,111.1,13.06,21.79,246.7
"2016-07-03 00:26:00",1775501,1.825,294.2,3.055,0.059,21.37,108.4685,20.96,21.99,41.41,0,111.1,13.06,21.79,256.2
"2016-07-03 00:26:30",1775502,1.899,298.8,3.303,0.23,21.47,108.4676,20.96,21.99,41.01,0,111.1,13.06,21.78,260.8
"2016-07-03 00:27:00",1775503,1.9,307.3,4.908,0.291,21.49,108.4667,20.96,22,41.41,0,111.1,13.06,21.78,269.3
"2016-07-03 00:27:30",1775504,1.391,318,8.78,0.11,21.6,108.4685,20.96,22.01,41.36,0,111.1,13.06,21.79,280.0
"2016-07-03 00:28:00",1775505,1.06,327.2,7.372,0.413,21.62,108.4673,20.96,22.02,41.2,0,111.1,13.06,21.78,289.2
"2016-07-03 00:28:30",1775506,0.202,8.83,19.25,0.241,21.77,108.4673,20.96,22.02,41.27,0,111.1,13.06,21.78,330.8
"2016-07-03 00:29:00",1775507,0.362,336.5,15.67,0.243,21.6,108.4667,20.96,22.01,41.3,0,111.1,13.06,21.78,298.5
"2016-07-03 00:29:30",1775508,1.116,318.7,9.25,0.252,21.33,108.4669,20.96,22,41.29,0,111.1,13.06,21.78,280.7
"2016-07-03 00:30:00",1775509,1.526,313,3.14,0.176,21.26,108.4673,20.96,21.99,41.63,0,111.1,13.06,21.78,275.0
"2016-07-03 00:30:30",1775510,1.694,311,2.765,0.211,21.33,108.4663,20.96,21.99,41.53,0,111.1,13.06,21.78,273.0
"2016-07-03 00:31:00",1775511,1.404,314.3,2.761,0.124,21.3,108.4663,20.96,22.01,41.51,0,111.1,13.06,21.78,276.3
"2016-07-03 00:31:30",1775512,0.986,315,4.52,0.186,21.33,108.4663,20.96,22,41.47,0,111.1,13.06,21.78,277.0
"2016-07-03 00:32:00",1775513,1.235,287.7,16.14,0.196,21.31,108.4682,20.96,22,41.08,0,111.1,13.06,21.79,249.7
"2016-07-03 00:32:30",1775514,1.193,277.3,11.32,0.139,21.3,108.4775,20.98,22.02,40.91,0,111.1,13.06,21.81,239.3
"2016-07-03 00:33:00",1775515,1.13,277.5,7.801,0.156,21.37,108.4899,21.02,22.03,41.16,0,111.1,13.06,21.84,239.5
"2016-07-03 00:33:30",1775516,0.857,271.1,4.974,0.095,21.43,108.4986,21.04,22.05,41.31,0,111.1,13.06,21.86,233.1
"2016-07-03 00:34:00",1775517,1.037,257.8,6.688,0.276,21.27,108.4991,21.04,22.05,41.36,0,111.1,13.05,21.87,219.8
"2016-07-03 00:34:30",1775518,1.183,260.5,3.965,0.144,21.29,108.4991,21.04,22.07,41.8,0,111.1,13.05,21.87,222.5
"2016-07-03 00:35:00",1775519,1.302,260.6,5.399,0.17,21.37,108.4991,21.04,22.07,41.85,0,111.1,13.06,21.87,222.6
"2016-07-03 00:35:30",1775520,0.901,260.5,5.188,0.143,21.45,108.4995,21.04,22.08,41.62,0,111.1,13.05,21.87,222.5
"2016-07-03 00:36:00",1775521,0.866,255.8,3.665,0.133,21.5,108.4994,21.04,22.09,41.56,0,111.1,13.05,21.87,217.8
"2016-07-03 00:36:30",1775522,0.945,273.5,8.3,0.167,21.49,108.5112,21.07,22.11,41.76,0,111.1,13.06,21.90,235.5
"2016-07-03 00:37:00",1775523,1.172,267.6,6.663,0.104,21.47,108.52,21.09,22.1,41.82,0,111.1,13.06,21.92,229.6
"2016-07-03 00:37:30",1775524,1.549,275.9,10.05,0.135,21.56,108.5239,21.1,22.12,41.78,0,111.1,13.06,21.93,237.9
"2016-07-03 00:38:00",1775525,1.639,280.6,7.315,0.178,21.61,108.5295,21.12,22.13,41.82,0,111.1,13.06,21.94,242.6
"2016-07-03 00:38:30",1775526,1.588,286.7,3.987,0.14,21.73,108.5326,21.13,22.13,41.88,0,111.1,13.06,21.95,248.7
"2016-07-03 00:39:00",1775527,2.147,290.4,3.922,0.177,21.7,108.5303,21.12,22.15,41.91,0,111.1,13.06,21.95,252.4
"2016-07-03 00:39:30",1775528,2.075,284.2,4.968,0.146,21.79,108.5289,21.12,22.14,42.01,0,111.1,13.06,21.94,246.2
"2016-07-03 00:40:00",1775529,1.869,294.8,7.434,0.214,21.75,108.5264,21.11,22.15,41.97,0,111.1,13.06,21.94,256.8
"2016-07-03 00:40:30",1775530,2.064,287.8,6.772,0.301,21.86,108.5256,21.11,22.15,42.05,0,111.1,13.06,21.93,249.8
"2016-07-03 00:41:00",1775531,1.484,303.5,9.18,0.135,21.83,108.5194,21.09,22.14,42.09,0,111.1,13.06,21.92,265.5
"2016-07-03 00:41:30",1775532,1.376,311.2,4.934,0.094,21.87,108.5135,21.08,22.15,42.05,0,111.1,13.06,21.90,273.2
"2016-07-03 00:42:00",1775533,1.72,292.6,3.837,0.328,21.82,108.5087,21.06,22.15,42.15,0,111.1,13.06,21.89,254.6
"2016-07-03 00:42:30",1775534,1.722,292.4,4.655,0.082,21.83,108.5003,21.04,22.14,42.69,0,111.1,13.06,21.87,254.4
"2016-07-03 00:43:00",1775535,1.97,299.8,7.089,0.187,21.84,108.4991,21.04,22.14,42.79,0,111.1,13.06,21.87,261.8
"2016-07-03 00:43:30",1775536,1.976,312.8,6.015,0.216,21.91,108.4991,21.04,22.14,43.11,0,111.1,13.06,21.87,274.8
"2016-07-03 00:44:00",1775537,2.315,315.7,2.362,0.191,21.93,108.4991,21.04,22.12,43.07,0,111.1,13.06,21.87,277.7
"2016-07-03 00:44:30",1775538,2.002,317.5,4.562,0.41,21.96,108.4995,21.04,22.12,42.9,0,111.1,13.06,21.87,279.5
"2016-07-03 00:45:00",1775539,1.49,322.1,3.709,0.15,21.97,108.498,21.04,22.12,43.13,0,111.1,13.06,21.86,284.1
"2016-07-03 00:45:30",1775540,1.277,314.6,5.406,0.187,21.89,108.4778,20.99,22.11,43.43,0,111.1,13.06,21.81,276.6
"2016-07-03 00:46:00",1775541,1.528,305.1,6.218,0.306,21.9,108.4671,20.96,22.08,43.53,0,111.1,13.06,21.78,267.1
"2016-07-03 00:46:30",1775542,1.708,294.4,12.85,0.195,21.89,108.466,20.96,22.08,43.74,0,111.1,13.06,21.78,256.4
"2016-07-03 00:47:00",1775543,1.649,301,4.764,0.151,21.9,108.466,20.96,22.06,44,0,111.1,13.06,21.78,263.0
"2016-07-03 00:47:30",1775544,1.347,288.8,8.1,0.173,21.84,108.4439,20.9,22.05,44.21,0,111.1,13.06,21.72,250.8
"2016-07-03 00:48:00",1775545,1.357,280.7,11.73,0.27,21.81,108.4326,20.87,21.98,44.38,0,111.1,13.06,21.69,242.7
"2016-07-03 00:48:30",1775546,1.78,291.2,5.682,0.17,21.7,108.432,20.87,21.99,44.37,0,111.1,13.06,21.69,253.2
"2016-07-03 00:49:00",1775547,1.766,297.1,6.507,0.119,21.72,108.4305,20.86,21.96,44.32,0,111.1,13.06,21.69,259.1
"2016-07-03 00:49:30",1775548,1.895,281.8,10.21,0.316,21.65,108.4242,20.85,21.93,44.78,0,111.1,13.06,21.67,243.8
"2016-07-03 00:50:00",1775549,2.386,284.7,4.536,0.178,21.69,108.4199,20.84,21.93,45.33,0,111.1,13.05,21.66,246.7
"2016-07-03 00:50:30",1775550,2.197,283.1,6.504,0.102,21.71,108.4132,20.82,21.92,45.52,0,111.1,13.05,21.64,245.1
"2016-07-03 00:51:00",1775551,2.279,279.8,4.937,0.177,21.71,108.4035,20.79,21.91,45.56,0,111.1,13.05,21.62,241.8
"2016-07-03 00:51:30",1775552,1.985,273,3.056,0.245,21.74,108.3995,20.78,21.9,45.51,0,111.1,13.05,21.61,235.0
"2016-07-03 00:52:00",1775553,2.127,257.3,5.641,0.171,21.73,108.4001,20.79,21.91,45.54,0,111.1,13.05,21.61,219.3
"2016-07-03 00:52:30",1775554,1.897,252.4,2.617,0.132,21.75,108.3995,20.78,21.89,45.65,0,111.1,13.05,21.61,214.4
"2016-07-03 00:53:00",1775555,2.207,256.8,5.503,0.295,21.73,108.3998,20.79,21.89,45.7,0,111.1,13.05,21.61,218.8
"2016-07-03 00:53:30",1775556,2.624,262.8,3.091,0.237,21.69,108.3998,20.79,21.89,45.51,0,111.1,13.06,21.61,224.8
"2016-07-03 00:54:00",1775557,2.529,266,9.38,0.251,21.65,108.3998,20.79,21.9,45.7,0,111.1,13.06,21.61,228.0
"2016-07-03 00:54:30",1775558,2.567,257,8.57,0.29,21.66,108.3992,20.78,21.88,45.73,0,111.1,13.06,21.61,219.0
"2016-07-03 00:55:00",1775559,2.868,270.4,5.72,0.193,21.68,108.3998,20.79,21.89,45.75,0,111.1,13.06,21.61,232.4
"2016-07-03 00:55:30",1775560,2.554,281.9,4.645,0.143,21.65,108.4004,20.79,21.87,45.94,0,111.1,13.06,21.61,243.9
"2016-07-03 00:56:00",1775561,2.663,281.8,5.398,0.327,21.67,108.4016,20.79,21.87,45.91,0,111.1,13.06,21.61,243.8
"2016-07-03 00:56:30",1775562,2.058,274.9,7.389,0.218,21.71,108.401,20.79,21.86,45.59,0,111.1,13.06,21.61,236.9
"2016-07-03 00:57:00",1775563,2.373,261.2,6.656,0.196,21.61,108.4016,20.79,21.86,45.01,0,111.1,13.06,21.61,223.2
"2016-07-03 00:57:30",1775564,2.493,262.3,8.07,0.234,21.62,108.4028,20.79,21.86,45.51,0,111.1,13.06,21.62,224.3
"2016-07-03 00:58:00",1775565,1.743,280.2,5.007,0.355,21.54,108.3774,20.73,21.84,46.2,0,111.1,13.06,21.55,242.2
"2016-07-03 00:58:30",1775566,1.644,280,5.268,0.159,21.47,108.3679,20.7,21.8,46.32,0,111.1,13.06,21.53,242.0
"2016-07-03 00:59:00",1775567,1.458,274.8,4.796,0.124,21.43,108.3664,20.7,21.79,46.54,0,111.1,13.06,21.52,236.8
"2016-07-03 00:59:30",1775568,1.1,275.6,5.732,0.157,21.33,108.3667,20.7,21.78,46.86,0,111.1,13.06,21.52,237.6
"2016-07-03 01:00:00",1775569,1.334,270.6,5.691,0.228,21.34,108.3658,20.7,21.78,46.96,0,111.1,13.06,21.52,232.6
"2016-07-03 01:00:30",1775570,1.291,273.8,7.197,0.201,21.35,108.3418,20.64,21.75,47.07,0,111.1,13.06,21.46,235.8
"2016-07-03 01:01:00",1775571,0.859,278.7,13.36,0.195,21.29,108.3277,20.6,21.71,47.25,0,111.1,13.06,21.42,240.7
"2016-07-03 01:01:30",1775572,1.309,267.5,16.66,0.295,21.22,108.3131,20.56,21.68,47.61,0,111.1,13.06,21.39,229.5
"2016-07-03 01:02:00",1775573,1.193,261.2,4.75,0.193,21.2,108.2968,20.52,21.66,47.98,0,111.1,13.06,21.34,223.2
"2016-07-03 01:02:30",1775574,1.029,276,9.27,0.133,21.13,108.2968,20.52,21.63,48.23,0,111.1,13.06,21.34,238.0
"2016-07-03 01:03:00",1775575,0.801,285.4,10.92,0.183,21.02,108.2968,20.52,21.6,48.42,0,111.1,13.06,21.34,247.4
"2016-07-03 01:03:30",1775576,0.657,267.4,2.749,0.095,21.1,108.2968,20.52,21.61,48.59,0,111.1,13.06,21.34,229.4
"2016-07-03 01:04:00",1775577,0.764,266.9,7.796,0.16,21.02,108.3044,20.54,21.59,48.64,0,111.1,13.06,21.36,228.9
"2016-07-03 01:04:30",1775578,1.481,256,5.661,0.31,20.97,108.3246,20.59,21.6,48.57,0,111.1,13.06,21.42,218.0
"2016-07-03 01:05:00",1775579,2.027,255.2,6.005,0.335,21.08,108.33,20.61,21.6,48,0,111.1,13.06,21.43,217.2
"2016-07-03 01:05:30",1775580,2.228,262,2.02,0.169,21.08,108.3297,20.61,21.61,47.69,0,111.1,13.06,21.43,224.0
"2016-07-03 01:06:00",1775581,1.805,254.3,3.093,0.254,21.08,108.3305,20.61,21.6,47.4,0,111.1,13.06,21.43,216.3
"2016-07-03 01:06:30",1775582,2.086,255.9,2.482,0.093,21.16,108.3305,20.61,21.61,47.15,0,111.1,13.06,21.43,217.9
"2016-07-03 01:07:00",1775583,2.491,251.4,2.681,0.1,21.25,108.333,20.61,21.6,47.3,0,111.1,13.05,21.44,213.4
"2016-07-03 01:07:30",1775584,2.399,252.7,3.17,0.267,21.26,108.3527,20.66,21.63,47.25,0,111.1,13.05,21.49,214.7
"2016-07-03 01:08:00",1775585,2.188,247.1,9.1,0.247,21.26,108.3643,20.69,21.65,47.24,0,111.1,13.05,21.52,209.1
"2016-07-03 01:08:30",1775586,1.848,246.7,3.64,0.112,21.28,108.3648,20.7,21.65,47.25,0,111.1,13.05,21.52,208.7
"2016-07-03 01:09:00",1775587,1.697,238.1,2.48,0.065,21.24,108.3879,20.75,21.68,46.92,0,111.1,13.05,21.58,200.1
"2016-07-03 01:09:30",1775588,1.825,229.3,1.793,0.144,21.37,108.3974,20.78,21.69,46.8,0,111.1,13.05,21.60,191.3
"2016-07-03 01:10:00",1775589,1.7,231.3,1.163,0.084,21.26,108.3988,20.78,21.72,46,0,111.1,13.05,21.61,193.3
"2016-07-03 01:10:30",1775590,1.457,229.6,2.925,0.112,21.26,108.4175,20.83,21.76,45.95,0,111.1,13.05,21.66,191.6
"2016-07-03 01:11:00",1775591,1.391,233.2,3.649,0.053,21.42,108.4287,20.86,21.77,45.99,0,111.1,13.05,21.68,195.2
"2016-07-03 01:11:30",1775592,1.148,247.9,10.44,0.066,21.54,108.4282,20.86,21.8,45.83,0,111.1,13.05,21.68,209.9
"2016-07-03 01:12:00",1775593,1.308,253.7,3.705,0.271,21.67,108.4472,20.91,21.83,46.01,0,111.1,13.06,21.73,215.7
"2016-07-03 01:12:30",1775594,1.565,251.2,7.668,0.114,21.75,108.4578,20.93,21.86,46.05,0,111.1,13.06,21.76,213.2
"2016-07-03 01:13:00",1775595,1.58,248.9,4.342,0.125,21.81,108.4599,20.94,21.9,46.24,0,111.1,13.06,21.76,210.9
"2016-07-03 01:13:30",1775596,1.597,238.5,8.99,0.109,21.92,108.4645,20.95,21.91,46.58,0,111.1,13.06,21.78,200.5
"2016-07-03 01:14:00",1775597,1.909,240.3,3.578,0.201,21.95,108.4801,20.99,21.92,47.04,0,111.1,13.06,21.82,202.3
"2016-07-03 01:14:30",1775598,2.009,233.6,4.482,0.188,22.12,108.4956,21.03,21.95,47.23,0,111.1,13.06,21.86,195.6
"2016-07-03 01:15:00",1775599,1.932,238.7,9.18,0.141,22.18,108.4967,21.03,21.96,47.14,0,111.1,13.06,21.86,200.7
"2016-07-03 01:15:30",1775600,2.087,248.8,3.137,0.144,22.2,108.4988,21.04,21.97,46.15,0,111.1,13.06,21.86,210.8
"2016-07-03 01:16:00",1775601,2.173,248.4,3.793,0.261,22.24,108.4991,21.04,21.99,45.45,0,111.1,13.06,21.87,210.4
"2016-07-03 01:16:30",1775602,2.087,248,3.663,0.159,22.24,108.4985,21.04,21.99,46.12,0,111.1,13.06,21.86,210.0
"2016-07-03 01:17:00",1775603,2.056,253.8,6.01,0.14,22.2,108.4991,21.04,22.01,46.62,0,111.1,13.06,21.87,215.8
"2016-07-03 01:17:30",1775604,2.295,267.8,4.847,0.25,22.16,108.4961,21.03,22.01,46.78,0,111.1,13.06,21.86,229.8
"2016-07-03 01:18:00",1775605,2.491,263.3,5.886,0.333,22.21,108.4859,21.01,22.01,47.17,0,111.1,13.06,21.83,225.3
"2016-07-03 01:18:30",1775606,2.721,260.2,3.579,0.231,22.25,108.4725,20.97,22.01,47.16,0,111.1,13.06,21.80,222.2
"2016-07-03 01:19:00",1775607,2.173,257.4,6.387,0.433,22.17,108.466,20.96,22,47.08,0,111.1,13.06,21.78,219.4
"2016-07-03 01:19:30",1775608,1.702,245.1,2.839,0.088,22.1,108.4654,20.95,22.01,47.24,0,111.1,13.06,21.78,207.1
"2016-07-03 01:20:00",1775609,2.224,238.2,6.372,0.478,21.99,108.4654,20.95,22,47.34,0,111.1,13.06,21.78,200.2
"2016-07-03 01:20:30",1775610,2.581,224,2.24,0.091,21.94,108.4654,20.95,21.98,47.48,0,111.1,13.06,21.78,186.0
"2016-07-03 01:21:00",1775611,2.346,227,8.35,0.212,21.85,108.4598,20.94,21.98,47.53,0,111.1,13.06,21.76,189.0
"2016-07-03 01:21:30",1775612,1.531,228.3,5.442,0.185,21.73,108.4323,20.87,21.95,47.82,0,111.1,13.06,21.69,190.3
"2016-07-03 01:22:00",1775613,1.281,244.4,11.59,0.397,21.68,108.4317,20.87,21.93,47.89,0,111.1,13.06,21.69,206.4
"2016-07-03 01:22:30",1775614,1.495,263.8,8.27,0.341,21.62,108.4042,20.8,21.91,48.15,0,111.1,13.06,21.62,225.8
"2016-07-03 01:23:00",1775615,1.873,259.6,4.452,0.172,21.65,108.398,20.78,21.87,48.8,0,111.1,13.06,21.61,221.6
"2016-07-03 01:23:30",1775616,2.006,248.9,6.329,0.381,21.59,108.369,20.71,21.82,48.88,0,111.1,13.06,21.53,210.9
"2016-07-03 01:24:00",1775617,2.22,264.1,3.97,0.332,21.61,108.3643,20.69,21.79,49.26,0,111.1,13.06,21.52,226.1
"2016-07-03 01:24:30",1775618,2.022,266.1,6.597,0.282,21.55,108.3643,20.69,21.76,49.5,0,111.1,13.05,21.52,228.1
"2016-07-03 01:25:00",1775619,2.841,278.5,4.125,0.228,21.56,108.3643,20.69,21.75,49.93,0,111.1,13.05,21.52,240.5
"2016-07-03 01:25:30",1775620,2.73,280,4.373,0.164,21.59,108.3643,20.69,21.73,50.26,0,111.1,13.05,21.52,242.0
"2016-07-03 01:26:00",1775621,2.228,271.8,2.564,0.125,21.65,108.3651,20.7,21.74,50.37,0,111.1,13.05,21.52,233.8
"2016-07-03 01:26:30",1775622,2.499,275.2,8.27,0.366,21.71,108.3682,20.7,21.75,50.62,0,111.1,13.05,21.53,237.2
"2016-07-03 01:27:00",1775623,2.105,251.2,16.4,0.273,21.77,108.3637,20.69,21.7,51.05,0,111.1,13.05,21.52,213.2
"2016-07-03 01:27:30",1775624,2.34,245.4,6.505,0.203,21.66,108.3634,20.69,21.7,50.82,0,111.1,13.05,21.52,207.4
"2016-07-03 01:28:00",1775625,2.529,246.9,3.162,0.347,21.71,108.3513,20.66,21.67,50.89,0,111.1,13.05,21.49,208.9
"2016-07-03 01:28:30",1775626,2.324,250.6,4.099,0.41,21.65,108.3311,20.61,21.64,50.9,0,111.1,13.05,21.43,212.6
"2016-07-03 01:29:00",1775627,3.056,255.9,3.932,0.47,21.67,108.3302,20.61,21.64,50.95,0,111.1,13.06,21.43,217.9
"2016-07-03 01:29:30",1775628,3.938,250.4,2.537,0.298,21.72,108.3305,20.61,21.62,51.01,0,111.1,13.06,21.43,212.4
"2016-07-03 01:30:00",1775629,3.831,245.5,5.821,0.227,21.81,108.3314,20.61,21.61,51.03,0,111.1,13.06,21.43,207.5
"2016-07-03 01:30:30",1775630,3.233,241.8,4.3,0.284,21.93,108.34,20.63,21.62,50.95,0,111.1,13.06,21.46,203.8
"2016-07-03 01:31:00",1775631,3.321,253.9,8.45,0.298,22.04,108.3533,20.67,21.62,50.88,0,111.1,13.06,21.49,215.9
"2016-07-03 01:31:30",1775632,3.235,270.2,3.697,0.237,22.11,108.3623,20.69,21.63,50.79,0,111.1,13.06,21.51,232.2
"2016-07-03 01:32:00",1775633,2.518,259.5,4.285,0.326,22.11,108.3634,20.69,21.63,50.79,0,111.1,13.06,21.52,221.5
"2016-07-03 01:32:30",1775634,1.966,267.6,4.241,0.175,22.08,108.3597,20.68,21.65,50.82,0,111.1,13.06,21.51,229.6
"2016-07-03 01:33:00",1775635,2.903,254.9,6.117,0.464,22.04,108.3586,20.68,21.64,50.79,0,111.1,13.06,21.50,216.9
"2016-07-03 01:33:30",1775636,2.904,254.7,6.225,0.227,22.01,108.3634,20.69,21.64,50.77,0,111.1,13.06,21.52,216.7
"2016-07-03 01:34:00",1775637,2.845,259.9,3.504,0.328,21.97,108.364,20.69,21.65,50.77,0,111.1,13.06,21.52,221.9
"2016-07-03 01:34:30",1775638,2.609,256.1,5.282,0.344,21.92,108.3541,20.67,21.67,50.69,0,111.1,13.06,21.49,218.1
"2016-07-03 01:35:00",1775639,2.53,255.2,3.718,0.18,21.92,108.3305,20.61,21.62,50.76,0,111.1,13.06,21.43,217.2
"2016-07-03 01:35:30",1775640,2.681,249.2,4.163,0.178,21.9,108.3078,20.55,21.6,50.75,0,111.1,13.06,21.37,211.2
"2016-07-03 01:36:00",1775641,2.994,250.3,6.729,0.264,21.85,108.2895,20.5,21.54,50.88,0,111.1,13.06,21.33,212.3
"2016-07-03 01:36:30",1775642,2.688,245.9,7.148,0.343,21.82,108.2659,20.44,21.49,50.78,0,111.1,13.06,21.27,207.9
"2016-07-03 01:37:00",1775643,2.261,258.3,2.59,0.205,21.87,108.2631,20.43,21.46,50.87,0,111.1,13.06,21.26,220.3
"2016-07-03 01:37:30",1775644,1.851,259.8,6.931,0.172,21.86,108.2631,20.43,21.44,50.93,0,111.1,13.06,21.26,221.8
"2016-07-03 01:38:00",1775645,2.008,268.3,3.228,0.12,21.89,108.2636,20.44,21.44,50.5,0,111.1,13.06,21.26,230.3
"2016-07-03 01:38:30",1775646,2.319,267,3.199,0.181,21.81,108.2709,20.45,21.44,50.42,0,111.1,13.06,21.28,229.0
"2016-07-03 01:39:00",1775647,2.339,257.8,3.074,0.142,21.8,108.2788,20.47,21.45,50.56,0,111.1,13.06,21.30,219.8
"2016-07-03 01:39:30",1775648,2.12,257.4,5.226,0.171,21.76,108.2909,20.51,21.46,50.55,0,111.1,13.06,21.33,219.4
"2016-07-03 01:40:00",1775649,1.958,248.9,1.603,0.049,21.78,108.2965,20.52,21.47,50.46,0,111.1,13.06,21.34,210.9
"2016-07-03 01:40:30",1775650,2.148,244.8,3.773,0.087,21.81,108.2968,20.52,21.48,50.46,0,111.1,13.06,21.34,206.8
"2016-07-03 01:41:00",1775651,2.076,241.5,1.691,0.064,21.83,108.2968,20.52,21.5,50.29,0,111.1,13.06,21.34,203.5
"2016-07-03 01:41:30",1775652,2.089,242.5,1.913,0.105,21.86,108.2968,20.52,21.49,49.74,0,111.1,13.05,21.34,204.5
"2016-07-03 01:42:00",1775653,2.117,246.5,2.143,0.147,21.87,108.2968,20.52,21.5,49.26,0,111.1,13.05,21.34,208.5
"2016-07-03 01:42:30",1775654,2.094,238.5,3.105,0.112,21.84,108.2968,20.52,21.51,48.43,0,111.1,13.05,21.34,200.5
"2016-07-03 01:43:00",1775655,2.284,235.4,3.121,0.126,21.88,108.2968,20.52,21.52,48.53,0,111.1,13.05,21.34,197.4
"2016-07-03 01:43:30",1775656,2.279,240.6,1.048,0.082,21.86,108.2996,20.53,21.52,47.67,0,111.1,13.05,21.35,202.6
"2016-07-03 01:44:00",1775657,2.602,241.4,2.459,0.131,21.86,108.3094,20.55,21.54,47.6,0,111.1,13.05,21.38,203.4
"2016-07-03 01:44:30",1775658,2.79,241.1,1.614,0.108,21.9,108.3212,20.58,21.54,48.45,0,111.1,13.05,21.41,203.1
"2016-07-03 01:45:00",1775659,2.678,243.7,6.666,0.128,21.93,108.3266,20.6,21.56,48.84,0,111.1,13.05,21.42,205.7
"2016-07-03 01:45:30",1775660,2.509,252.1,2.789,0.119,21.96,108.3291,20.6,21.57,49.19,0,111.1,13.05,21.43,214.1
"2016-07-03 01:46:00",1775661,2.238,245.4,5.045,0.174,21.93,108.33,20.61,21.58,49.5,0,111.1,13.05,21.43,207.4
"2016-07-03 01:46:30",1775662,2.309,242.3,2.668,0.091,21.96,108.3305,20.61,21.59,49.67,0,111.1,13.06,21.43,204.3
"2016-07-03 01:47:00",1775663,2.481,245.1,5.028,0.172,22.06,108.3305,20.61,21.6,49.61,0,111.1,13.06,21.43,207.1